Voltar ao catálogo

CZ-6A DEB

AtivoPO
NORAD 60707·DEBRIS·🇨🇳 China

Lançado Aug 6, 2024 de Taiyuan Satellite Launch Center

Loading…

Próximas Passagens (próximas 24 horas)

TLE

AtualizadoSource: Space-Track

Época: Sep 14, 2026, 23:04 UTC

1 60707U 24140DL  26257.96129968  .00000520  00000-0  17052-3 0  9998
2 60707  88.9626 259.0962 0039640  49.4879 310.9763 14.36564887109592

Acompanhe CZ-6A DEB em tempo real com AllMySat

Download on the App Store